FW8932 Weather Reports


Display with metric or nautical units.
time (UTC)temp
F
wind
direction
speed
MPH
gust
MPH
rain 1hr
in
rain 24hr
in
rain mn
in
humidity
%
barometer
mb
20260510104203 51 148 0.0 0.0 0.00 0.44 0.05 96 978.2
20260510103703 50 148 0.0 0.0 0.00 0.44 0.05 96 978.0
20260510101704 51 150 0.0 1.0 0.00 0.44 0.05 96 977.3
20260510101204 51 0 0.0 1.0 0.00 0.44 0.05 96 977.3
20260510100703 51 1 0.0 0.0 0.00 0.44 0.05 96 977.4
20260510094704 50 341 0.0 1.0 0.00 0.45 0.05 96 976.9
20260510094204 50 347 0.0 1.0 0.00 0.46 0.05 96 976.9
20260510093203 50 347 0.0 0.0 0.00 0.46 0.05 96 976.7
20260510091703 51 347 0.0 1.0 0.00 0.49 0.05 96 976.5
20260510091203 51 357 1.0 2.0 0.00 0.50 0.05 96 976.5
20260510090703 51 5 1.0 2.0 0.00 0.50 0.05 96 976.4
20260510090204 51 352 0.0 0.0 0.00 0.50 0.05 96 976.3
20260510084704 52 357 0.0 1.0 0.00 0.52 0.05 96 976.0
20260510084203 52 22 1.0 1.0 0.00 0.52 0.05 96 975.9
20260510083703 53 6 0.0 0.0 0.00 0.52 0.05 96 976.0
20260510083203 53 6 0.0 2.0 0.00 0.52 0.05 96 975.9
20260510081703 54 22 1.0 2.0 0.00 0.52 0.05 96 975.8
20260510081204 54 316 1.0 3.0 0.00 0.52 0.05 96 975.8
20260510080203 54 286 2.0 3.0 0.00 0.52 0.05 96 975.7
20260510074703 53 296 1.0 2.0 0.01 0.52 0.05 96 975.5
20260510073203 53 321 1.0 3.0 0.01 0.52 0.05 96 975.5
20260510071705 53 335 1.0 2.0 0.01 0.52 0.05 96 975.6
20260510071205 53 324 1.0 3.0 0.01 0.52 0.05 96 975.6
20260510070704 53 334 1.0 3.0 0.01 0.52 0.05 96 975.6
20260510064205 54 24 0.0 2.0 0.00 0.57 0.04 96 975.4
20260510063705 54 344 1.0 2.0 0.00 0.57 0.04 96 975.4
20260510063205 54 343 1.0 3.0 0.00 0.57 0.04 96 975.3
20260510061705 54 331 1.0 3.0 0.04 0.57 0.04 96 975.4
20260510061204 55 331 1.0 2.0 0.04 0.57 0.04 96 975.4
20260510060705 55 345 1.0 2.0 0.04 0.57 0.04 96 975.4
20260510060205 55 309 1.0 3.0 0.04 0.57 0.04 96 975.4
20260510054705 55 264 1.0 2.0 0.04 0.57 0.04 96 975.7
20260510054205 55 314 1.0 2.0 0.04 0.57 0.04 96 975.9
20260510053705 55 286 2.0 3.0 0.04 0.57 0.04 96 975.9
20260510053205 55 20 1.0 5.0 0.07 0.57 0.07 96 976.1
20260510051705 55 243 1.0 5.0 0.00 0.50 0.00 96 976.3
20260510051205 54 271 3.0 3.0 0.00 0.50 0.00 96 975.5
20260510050704 54 299 0.0 1.0 0.00 0.50 0.00 96 975.2
20260510050204 54 298 0.0 1.0 0.00 0.50 0.00 96 975.2
20260510044205 55 319 0.0 1.0 0.00 0.50 0.00 96 975.1
20260510043705 55 281 0.0 2.0 0.00 0.50 0.00 96 975.1
20260510043205 56 298 1.0 3.0 0.00 0.50 0.00 96 974.9
20260510023205 56 353 0.0 2.0 0.04 0.62 0.28 96 974.6
20260510021705 57 260 0.0 1.0 0.04 0.50 0.16 96 974.5
20260510020704 57 298 2.0 3.0 0.06 0.50 0.16 96 974.6
20260510020205 57 300 1.0 2.0 0.06 0.52 0.16 96 974.7
20260510014205 58 325 0.0 1.0 0.08 0.52 0.18 95 974.4
20260510013705 59 132 1.0 2.0 0.15 0.48 0.25 95 974.4
20260510013204 60 84 2.0 7.0 0.14 0.47 0.24 92 974.3
20260510011704 65 108 3.0 6.0 0.02 0.35 0.11 71 973.6
20260510011205 66 284 3.0 6.0 0.00 0.33 0.10 61 973.1
20260510010705 66 132 1.0 3.0 0.00 0.33 0.10 61 972.6
20260510010204 66 42 1.0 6.0 0.00 0.33 0.10 60 972.3
20260510004704 66 169 2.0 6.0 0.00 0.35 0.10 60 972.0
20260510004205 66 220 3.0 9.0 0.00 0.35 0.10 59 972.1
20260510003705 66 82 3.0 6.0 0.00 0.37 0.10 60 972.1
20260510003204 66 158 2.0 6.0 0.00 0.37 0.10 59 972.1
20260510001705 67 92 3.0 6.0 0.00 0.39 0.10 60 972.2
20260510001205 67 103 3.0 6.0 0.00 0.40 0.10 59 972.2
20260510000705 67 120 3.0 6.0 0.00 0.40 0.10 60 972.1
20260510000205 67 110 2.0 6.0 0.00 0.40 0.10 60 972.1
20260509234705 67 129 2.0 5.0 0.00 0.40 0.10 59 972.0
20260509234204 67 116 3.0 6.0 0.00 0.40 0.10 59 971.9
20260509233705 68 95 3.0 6.0 0.00 0.40 0.10 58 971.9
20260509233205 68 143 2.0 6.0 0.00 0.40 0.10 58 971.8
20260509231705 68 124 3.0 7.0 0.00 0.40 0.10 57 971.7
20260509231205 68 182 3.0 8.0 0.00 0.40 0.10 57 971.6
20260509224704 68 218 3.0 6.0 0.00 0.40 0.10 58 971.6
20260509224205 68 157 4.0 8.0 0.00 0.40 0.10 56 971.8
20260509223705 69 149 5.0 7.0 0.00 0.40 0.10 56 971.9
20260509223205 69 188 3.0 9.0 0.00 0.40 0.10 56 971.8
20260509221705 69 138 2.0 9.0 0.00 0.40 0.10 58 971.8
20260509221205 69 95 3.0 9.0 0.00 0.40 0.10 57 971.8
20260509220705 69 125 3.0 6.0 0.00 0.40 0.10 57 971.9
20260509220205 69 141 3.0 8.0 0.00 0.40 0.10 57 971.9
20260509214705 69 127 5.0 9.0 0.00 0.40 0.10 58 971.8
20260509213705 69 112 3.0 7.0 0.00 0.40 0.10 60 971.9
20260509213204 68 207 3.0 7.0 0.00 0.40 0.10 59 972.0
20260509211704 68 121 3.0 7.0 0.00 0.40 0.10 58 972.0
20260509211204 68 111 4.0 7.0 0.00 0.40 0.10 59 972.1
20260509210704 68 154 3.0 6.0 0.00 0.40 0.10 59 972.1
20260509210205 68 125 5.0 12.0 0.00 0.40 0.10 59 972.2
20260509204705 68 122 4.0 9.0 0.00 0.40 0.10 60 972.2
20260509203705 67 152 3.0 7.0 0.00 0.40 0.10 62 972.2
20260509203205 68 93 6.0 12.0 0.00 0.40 0.10 60 972.3
20260509201705 68 129 3.0 8.0 0.00 0.40 0.10 63 972.5
20260509201205 68 120 3.0 8.0 0.00 0.40 0.10 64 972.6
20260509200705 68 141 3.0 7.0 0.00 0.40 0.10 62 972.8
20260509194705 67 142 3.0 7.0 0.00 0.40 0.10 64 973.1
20260509193205 67 145 3.0 7.0 0.00 0.40 0.10 64 973.2
20260509191705 66 144 4.0 8.0 0.00 0.40 0.10 66 973.3
20260509191205 66 138 4.0 7.0 0.00 0.40 0.10 66 973.5
20260509190705 66 137 3.0 7.0 0.00 0.40 0.10 67 973.6
20260509190205 66 109 5.0 9.0 0.00 0.40 0.10 66 973.6
20260509184705 65 260 3.0 7.0 0.00 0.40 0.10 69 973.8
20260509184204 64 189 4.0 6.0 0.00 0.40 0.10 72 973.8
20260509183704 64 148 3.0 8.0 0.00 0.40 0.10 70 973.8
20260509180705 63 168 4.0 7.0 0.00 0.40 0.10 73 973.9
20260509180204 63 134 2.0 8.0 0.00 0.40 0.10 73 974.0
20260509174205 62 106 3.0 8.0 0.00 0.40 0.10 77 974.2
20260509173204 61 87 3.0 7.0 0.00 0.40 0.10 77 974.3
20260509171704 61 109 2.0 6.0 0.00 0.40 0.10 79 974.4
20260509171204 61 165 3.0 6.0 0.00 0.40 0.10 82 974.5
20260509170704 61 119 3.0 5.0 0.00 0.40 0.10 81 974.4
20260509164704 59 140 3.0 8.0 0.00 0.40 0.10 84 974.5
20260509164205 58 176 3.0 8.0 0.00 0.40 0.10 85 974.5
20260509163204 58 126 2.0 6.0 0.00 0.40 0.10 86 974.6
20260509161704 57 134 2.0 7.0 0.00 0.40 0.10 86 974.6
20260509160704 57 133 3.0 7.0 0.00 0.40 0.10 87 974.7
20260509160205 57 120 3.0 7.0 0.00 0.40 0.10 89 974.6
20260509154705 57 153 2.0 5.0 0.00 0.40 0.10 88 974.4
20260509154205 57 129 2.0 3.0 0.00 0.40 0.10 89 974.3
20260509153704 57 153 2.0 5.0 0.00 0.40 0.10 88 974.3
20260509151704 57 125 3.0 6.0 0.00 0.40 0.10 88 974.1
20260509150704 56 112 2.0 5.0 0.00 0.40 0.10 90 974.2
20260509150205 56 112 3.0 7.0 0.00 0.40 0.10 90 974.2
20260509144205 56 148 2.0 3.0 0.00 0.40 0.10 92 974.2
20260509143205 55 109 2.0 6.0 0.00 0.40 0.10 94 974.3
20260509141705 54 175 3.0 7.0 0.00 0.40 0.10 95 974.3
20260509141204 54 123 2.0 5.0 0.00 0.40 0.10 97 974.4
20260509140705 53 179 2.0 5.0 0.00 0.40 0.10 97 974.5
20260509140204 53 170 2.0 5.0 0.00 0.40 0.10 97 974.4
20260509134705 53 118 2.0 2.0 0.00 0.40 0.10 97 974.5
20260509134204 53 105 1.0 2.0 0.00 0.40 0.10 97 974.5
20260509133705 53 290 1.0 2.0 0.00 0.40 0.10 97 974.5
20260509131705 53 149 2.0 3.0 0.01 0.40 0.09 97 974.6
20260509130704 52 135 2.0 7.0 0.01 0.40 0.09 97 974.6
20260509130204 52 171 2.0 5.0 0.01 0.40 0.09 97 974.6
20260509124705 52 106 2.0 6.0 0.02 0.40 0.09 97 974.6
20260509124204 52 189 2.0 3.0 0.02 0.40 0.09 97 974.6
20260509123705 52 113 2.0 5.0 0.02 0.41 0.09 96 974.6
20260509123204 52 24 3.0 6.0 0.02 0.41 0.09 97 974.6
20260509121704 51 102 2.0 3.0 0.02 0.40 0.09 96 974.9
20260509121204 51 84 2.0 3.0 0.02 0.40 0.09 96 975.0
20260509114705 51 115 0.0 3.0 0.01 0.39 0.08 96 974.9
20260509113704 51 47 0.0 2.0 0.01 0.39 0.07 96 974.8
20260509111704 51 355 0.0 2.0 0.01 0.39 0.07 96 974.7
20260509111205 51 329 2.0 2.0 0.01 0.39 0.07 96 974.6
20260509110704 51 31 1.0 2.0 0.01 0.39 0.07 96 974.5
20260509110205 51 161 1.0 5.0 0.01 0.38 0.06 96 974.5